SCP
0 0 0 0 0 0 0 0 0 0 0 0 0 0 0 0 0 0 0 0 0 0 0 0 0 0 0 0 0 0 0 0
0 0 0 0 0 0 0 0 0 0 0 0 0 0 0 0 0 0 0 0 0 0 0 0 0 0 0 0 0 0 -0 0
0 0 0 0 0 0 0 0 0 0 0 0 0 0 0 0 0 0 0 0 0 0 0 0 0 0 0 0 0 0 0 0
0 0 0 0 0 0 0 0 0 0 0 0 0 0 0 0 0 0 0 0 0 0 0 0 0 0 0 0 0 0 0 0
0 0 0 0 0 0 0 0 0 0 0 0 0 0 0 0 0 0 0 0 0 0 0 0 0 0 0 0 0 0 0 0
0 0 0 0 0 0 0 0 0 0 0 0 0 0 0 0 0 0 0 0 0 0 0 0 0 0 0 0 0 0 0 -0
0 0 0 0 0 0 0 0 0 0 0 0 0 0 0 0 0 0 0 0 0 0 0 0 0 0 0 0 0 0 0 -0
0 0 0 0 0 0 0 0 0 0 0 0 0 0 0 0 0 0 0 0 0 0 0 0 0 0 0 0 0 0 0 -0
0 0 0 0 0 0 0 0 0 0 0 0 0 0 0 0 0 0 0 0 0 0 0 0 0 0 -0 0 0 0 0 -0
0 0 0 0 0 0 0 0 0 0 0 0 0 0 0 0 0 0 0 0 0 0 0 0 0 0 0 0 0 0 0 0
0 0 0 0 0 0 0 0 0 0 0 0 0 0 0 0 0 0 0 0 0 0 0 0 0 0 0 0 0 -0 -0 0
0 0 0 0 0 0 0 0 0 0 0 0 0 0 0 0 0 0 0 0 -0 -0 0 0 0 0 0 0 0 0 0 0
0 0 0 0 0 0 0 0 0 0 0 0 0 0 0 0 0 0 0 0 -0 -0 0 0 0 0 0 -0 0 0 0 0
0 0 0 0 0 0 0 0 0 0 0 0 0 0 0 0 0 0 0 -0 -0 -0 0 0 0 0 -0 -0 0 0 0 0
0 0 0 0 0 0 0 0 0 0 0 0 0 0 0 0 0 0 0 -0 -0 -0 -0 0 0 0 0 0 -0 0 0 0
0 0 0 0 0 0 0 0 0 0 0 0 0 0 0 0 0 -0 -0 -0 -0 -0 -0 0 0 0 -0 -0 0 0 0 0
0 0 0 0 0 0 0 0 0 0 0 0 0 0 0 0 0 -0 -0 -0 -0 -0 -0 -0 -0 -0 -0 -0 0 0 0 0
0 0 0 0 0 0 0 0 0 0 0 0 0 0 0 0 0 0 0 -0 -0 -0 0 0 -0 -0 -0 -0 0 0 0 0
0 0 0 0 0 0 0 0 0 0 0 0 0 0 0 0 0 0 -0 -0 0 -0 0 0 -0 -0 -0 -0 0 0 0 0
0 0 0 0 0 0 0 0 0 0 0 0 0 0 0 0 0 0 -0 -0 -0 -0 0 0 -0 -0 -0 -0 0 0 0 0
Wind_Speed_500mb
55 40 29 25 26 33 41 48 55 60 65 70 74 79 85 89 90 91 95 100 105 107 102 95 89 85 75 68 78 82 89 63
52 38 30 27 30 36 44 55 58 63 67 72 78 82 87 90 90 90 95 100 104 104 100 91 84 81 71 81 80 81 89 76
49 39 33 29 31 38 50 53 58 64 70 74 81 85 87 91 91 91 96 99 100 99 94 89 85 76 76 75 70 73 85 83
52 43 34 28 31 40 46 52 59 66 72 77 80 86 91 93 92 93 97 99 98 92 89 81 77 73 70 72 69 70 80 87
58 44 31 28 32 40 45 52 60 66 72 78 84 88 92 92 94 96 96 97 94 89 83 74 75 70 68 65 68 65 72 87
55 41 32 28 33 38 44 52 59 66 74 81 85 87 91 92 93 96 96 94 89 83 78 71 69 67 60 59 58 66 67 82
47 38 28 28 32 36 44 51 60 68 74 79 84 86 89 92 94 96 96 93 88 81 78 77 71 63 59 59 66 70 72 74
48 34 26 25 28 37 44 53 61 67 73 79 81 84 88 90 92 94 95 96 92 82 76 72 68 65 62 61 63 70 72 78
44 32 24 20 26 34 45 54 61 66 70 75 80 83 86 88 89 93 95 93 90 84 74 72 65 63 64 66 64 70 73 77
39 28 19 18 25 35 44 52 59 65 70 74 77 81 84 84 87 91 93 93 89 79 73 67 64 60 65 64 68 67 70 70
36 23 16 17 26 35 43 50 57 63 68 71 72 75 79 80 86 88 88 88 85 80 69 65 62 61 61 53 60 67 71 64
31 21 14 17 24 33 42 47 53 57 63 66 68 70 74 79 79 86 86 88 86 82 76 68 67 62 57 57 58 64 64 66
30 19 13 16 25 33 42 49 52 55 58 61 63 66 70 75 80 82 82 85 83 80 75 79 77 60 63 56 46 49 51 61
28 18 12 16 24 34 42 48 50 52 55 59 62 65 68 74 77 81 80 80 79 77 78 88 75 90 67 47 50 43 36 40
31 20 14 16 23 34 42 45 46 48 53 59 63 66 66 71 69 74 74 79 78 79 83 84 87 83 82 81 70 51 37 35
31 21 15 15 20 30 37 40 41 45 51 55 59 63 66 63 71 66 62 60 67 74 79 87 83 79 74 73 75 67 50 41
32 22 16 16 19 26 31 35 39 43 48 53 57 61 63 68 67 64 61 55 51 58 65 79 63 70 70 71 60 43 34 25
32 23 15 15 18 22 24 27 32 39 44 48 52 56 60 64 71 81 74 70 68 60 68 76 66 68 70 66 37 26 10 19
34 25 17 13 14 17 19 23 27 33 37 44 47 49 51 56 62 69 79 89 89 86 80 84 72 69 71 67 28 21 24 20
34 26 16 11 10 12 15 18 23 28 34 38 41 43 46 50 55 62 69 77 85 87 94 98 93 84 78 75 79 72 62 51
Wind_Direction_500mb
214 223 242 262 281 303 311 319 321 320 321 323 324 325 323 324 325 322 320 320 319 317 313 307 301 298 293 283 271 261 255 260
214 225 242 260 286 303 314 319 320 322 324 324 325 325 325 325 324 323 322 321 318 315 311 304 294 292 285 282 273 264 255 255
218 228 243 265 290 309 317 320 322 322 324 325 326 326 326 326 327 326 323 321 318 314 309 301 296 290 288 285 276 265 255 250
218 228 241 269 296 308 314 319 320 324 325 327 328 328 328 328 328 326 325 322 318 312 307 303 298 289 285 283 277 268 254 249
219 225 241 270 292 306 315 320 323 325 327 329 330 329 328 329 329 328 326 323 320 314 307 301 295 289 287 283 277 270 259 248
210 217 241 271 295 308 316 322 326 328 329 331 330 329 330 331 330 330 328 325 321 313 309 305 299 292 287 289 283 268 261 253
209 224 248 277 296 310 319 324 327 329 330 330 330 331 332 333 333 331 329 327 323 320 316 310 304 294 283 277 276 274 265 257
211 223 246 276 298 313 322 326 328 328 329 330 333 333 334 335 334 333 332 332 328 319 311 307 303 299 289 281 273 270 267 259
206 219 241 273 304 318 323 326 328 327 329 330 333 335 335 336 336 336 337 332 327 323 321 314 307 303 296 286 276 270 265 258
202 213 237 279 309 319 323 328 328 329 331 333 336 336 336 338 341 341 336 336 332 323 320 318 311 315 306 297 284 274 264 254
193 207 244 294 315 323 327 330 331 332 334 335 337 339 338 343 346 340 342 339 336 334 332 326 323 319 312 316 299 279 274 266
191 211 248 294 315 324 327 333 333 333 335 338 341 340 344 348 347 346 344 342 342 338 339 331 322 314 318 318 331 298 271 265
197 209 254 302 317 325 331 336 336 338 340 342 342 347 350 351 352 350 349 346 338 337 329 330 336 329 318 319 321 337 271 266
194 217 257 297 318 326 333 336 340 341 343 346 350 354 355 357 357 354 354 349 340 335 331 334 336 327 332 327 319 313 300 288
196 212 246 290 316 327 333 338 340 342 348 352 353 356 358 0 5 0 357 352 341 338 336 337 330 336 341 329 314 303 280 262
196 209 244 279 312 324 332 336 341 349 353 356 356 358 358 7 7 6 2 351 342 341 343 337 335 336 328 323 316 309 309 285
199 207 239 281 310 326 336 337 342 350 357 358 359 -0 359 1 5 18 16 3 353 350 353 343 339 337 338 331 324 320 295 253
198 213 231 275 307 330 339 338 344 355 358 359 1 2 0 4 6 5 15 23 20 1 3 357 353 353 354 352 354 342 325 216
198 203 224 264 309 332 338 341 351 358 0 1 3 3 4 7 11 15 13 11 13 25 17 7 8 7 10 16 41 55 58 53
198 200 216 258 301 332 339 341 352 358 4 7 4 4 8 11 14 19 20 19 15 16 28 24 32 33 34 41 44 38 36 36
Wind_Speed_850mb
55 40 29 25 26 33 41 48 55 60 65 70 74 79 85 89 90 91 95 100 105 107 102 95 89 85 75 68 78 82 89 63
52 38 30 27 30 36 44 55 58 63 67 72 78 82 87 90 90 90 95 100 104 104 100 91 84 81 71 81 80 81 89 76
49 39 33 29 31 38 50 53 58 64 70 74 81 85 87 91 91 91 96 99 100 99 94 89 85 76 76 75 70 73 85 83
52 43 34 28 31 40 46 52 59 66 72 77 80 86 91 93 92 93 97 99 98 92 89 81 77 73 70 72 69 70 80 87
58 44 31 28 32 40 45 52 60 66 72 78 84 88 92 92 94 96 96 97 94 89 83 74 75 70 68 65 68 65 72 87
55 41 32 28 33 38 44 52 59 66 74 81 85 87 91 92 93 96 96 94 89 83 78 71 69 67 60 59 58 66 67 82
47 38 28 28 32 36 44 51 60 68 74 79 84 86 89 92 94 96 96 93 88 81 78 77 71 63 59 59 66 70 72 74
48 34 26 25 28 37 44 53 61 67 73 79 81 84 88 90 92 94 95 96 92 82 76 72 68 65 62 61 63 70 72 78
44 32 24 20 26 34 45 54 61 66 70 75 80 83 86 88 89 93 95 93 90 84 74 72 65 63 64 66 64 70 73 77
39 28 19 18 25 35 44 52 59 65 70 74 77 81 84 84 87 91 93 93 89 79 73 67 64 60 65 64 68 67 70 70
36 23 16 17 26 35 43 50 57 63 68 71 72 75 79 80 86 88 88 88 85 80 69 65 62 61 61 53 60 67 71 64
31 21 14 17 24 33 42 47 53 57 63 66 68 70 74 79 79 86 86 88 86 82 76 68 67 62 57 57 58 64 64 66
30 19 13 16 25 33 42 49 52 55 58 61 63 66 70 75 80 82 82 85 83 80 75 79 77 60 63 56 46 49 51 61
28 18 12 16 24 34 42 48 50 52 55 59 62 65 68 74 77 81 80 80 79 77 78 88 75 90 67 47 50 43 36 40
31 20 14 16 23 34 42 45 46 48 53 59 63 66 66 71 69 74 74 79 78 79 83 84 87 83 82 81 70 51 37 35
31 21 15 15 20 30 37 40 41 45 51 55 59 63 66 63 71 66 62 60 67 74 79 87 83 79 74 73 75 67 50 41
32 22 16 16 19 26 31 35 39 43 48 53 57 61 63 68 67 64 61 55 51 58 65 79 63 70 70 71 60 43 34 25
32 23 15 15 18 22 24 27 32 39 44 48 52 56 60 64 71 81 74 70 68 60 68 76 66 68 70 66 37 26 10 19
34 25 17 13 14 17 19 23 27 33 37 44 47 49 51 56 62 69 79 89 89 86 80 84 72 69 71 67 28 21 24 20
34 26 16 11 10 12 15 18 23 28 34 38 41 43 46 50 55 62 69 77 85 87 94 98 93 84 78 75 79 72 62 51
Wind_Direction_850mb
214 223 242 262 281 303 311 319 321 320 321 323 324 325 323 324 325 322 320 320 319 317 313 307 301 298 293 283 271 261 255 260
214 225 242 260 286 303 314 319 320 322 324 324 325 325 325 325 324 323 322 321 318 315 311 304 294 292 285 282 273 264 255 255
218 228 243 265 290 309 317 320 322 322 324 325 326 326 326 326 327 326 323 321 318 314 309 301 296 290 288 285 276 265 255 250
218 228 241 269 296 308 314 319 320 324 325 327 328 328 328 328 328 326 325 322 318 312 307 303 298 289 285 283 277 268 254 249
219 225 241 270 292 306 315 320 323 325 327 329 330 329 328 329 329 328 326 323 320 314 307 301 295 289 287 283 277 270 259 248
210 217 241 271 295 308 316 322 326 328 329 331 330 329 330 331 330 330 328 325 321 313 309 305 299 292 287 289 283 268 261 253
209 224 248 277 296 310 319 324 327 329 330 330 330 331 332 333 333 331 329 327 323 320 316 310 304 294 283 277 276 274 265 257
211 223 246 276 298 313 322 326 328 328 329 330 333 333 334 335 334 333 332 332 328 319 311 307 303 299 289 281 273 270 267 259
206 219 241 273 304 318 323 326 328 327 329 330 333 335 335 336 336 336 337 332 327 323 321 314 307 303 296 286 276 270 265 258
202 213 237 279 309 319 323 328 328 329 331 333 336 336 336 338 341 341 336 336 332 323 320 318 311 315 306 297 284 274 264 254
193 207 244 294 315 323 327 330 331 332 334 335 337 339 338 343 346 340 342 339 336 334 332 326 323 319 312 316 299 279 274 266
191 211 248 294 315 324 327 333 333 333 335 338 341 340 344 348 347 346 344 342 342 338 339 331 322 314 318 318 331 298 271 265
197 209 254 302 317 325 331 336 336 338 340 342 342 347 350 351 352 350 349 346 338 337 329 330 336 329 318 319 321 337 271 266
194 217 257 297 318 326 333 336 340 341 343 346 350 354 355 357 357 354 354 349 340 335 331 334 336 327 332 327 319 313 300 288
196 212 246 290 316 327 333 338 340 342 348 352 353 356 358 0 5 0 357 352 341 338 336 337 330 336 341 329 314 303 280 262
196 209 244 279 312 324 332 336 341 349 353 356 356 358 358 7 7 6 2 351 342 341 343 337 335 336 328 323 316 309 309 285
199 207 239 281 310 326 336 337 342 350 357 358 359 -0 359 1 5 18 16 3 353 350 353 343 339 337 338 331 324 320 295 253
198 213 231 275 307 330 339 338 344 355 358 359 1 2 0 4 6 5 15 23 20 1 3 357 353 353 354 352 354 342 325 216
198 203 224 264 309 332 338 341 351 358 0 1 3 3 4 7 11 15 13 11 13 25 17 7 8 7 10 16 41 55 58 53
198 200 216 258 301 332 339 341 352 358 4 7 4 4 8 11 14 19 20 19 15 16 28 24 32 33 34 41 44 38 36 36